| time (UTC) | temp C | wind direction | speed KPH | gust KPH | rain 1hr cm | rain 24hr cm | rain mn cm | humidity % | barometer mb |
| 20260502151554 | 14 | 213 | 20.9 | 48.3 | 0.00 | 0.00 | 0.00 | 79 | 1015.0 |
| 20260502123045 | 16 | 186 | 20.9 | 43.5 | 0.00 | 0.00 | 0.00 | 73 | 1017.6 |
| 20260502121541 | 16 | 360 | 19.3 | 35.4 | 0.00 | 0.00 | 0.00 | 71 | 1017.9 |
| 20260502114530 | 16 | 360 | 20.9 | 46.7 | 0.00 | 0.00 | 0.00 | 72 | 1018.4 |
| 20260502113028 | 16 | 198 | 22.5 | 41.8 | 0.00 | 0.00 | 0.00 | 74 | 1018.7 |
| 20260502111526 | 15 | 206 | 17.7 | 37.0 | 0.00 | 0.00 | 0.00 | 76 | 1018.9 |
| 20260502110031 | 15 | 168 | 17.7 | 33.8 | 0.00 | 0.00 | 0.00 | 76 | 1019.2 |
| 20260502104521 | 15 | 200 | 16.1 | 33.8 | 0.00 | 0.00 | 0.00 | 75 | 1019.4 |
| 20260502103022 | 15 | 203 | 16.1 | 33.8 | 0.00 | 0.00 | 0.00 | 75 | 1019.6 |
| 20260502101519 | 15 | 223 | 17.7 | 32.2 | 0.00 | 0.00 | 0.00 | 76 | 1019.6 |
| 20260502091510 | 15 | 219 | 11.3 | 17.7 | 0.00 | 0.00 | 0.00 | 79 | 1020.1 |
| 20260502070047 | 13 | 235 | 4.8 | 12.9 | 0.00 | 0.00 | 0.00 | 80 | 1021.1 |
| 20260502064543 | 12 | 240 | 4.8 | 11.3 | 0.00 | 0.00 | 0.00 | 81 | 1021.1 |
| 20260502063047 | 12 | 233 | 4.8 | 9.7 | 0.00 | 0.00 | 0.00 | 83 | 1021.2 |
| 20260502061539 | 12 | 219 | 3.2 | 8.0 | 0.00 | 0.00 | 0.00 | 83 | 1021.4 |
| 20260502060034 | 11 | 212 | 3.2 | 12.9 | 0.00 | 0.00 | 0.00 | 84 | 1021.5 |
| 20260502054536 | 11 | 236 | 6.4 | 14.5 | 0.00 | 0.00 | 0.00 | 85 | 1021.5 |
| 20260502053026 | 11 | 234 | 6.4 | 11.3 | 0.00 | 0.00 | 0.00 | 85 | 1021.3 |
| 20260502051520 | 11 | 211 | 4.8 | 8.0 | 0.00 | 0.00 | 0.00 | 84 | 1021.2 |
| 20260502050024 | 11 | 215 | 3.2 | 8.0 | 0.00 | 0.00 | 0.00 | 85 | 1021.2 |
| 20260502044512 | 11 | 198 | 4.8 | 12.9 | 0.00 | 0.00 | 0.00 | 85 | 1021.2 |
| 20260502043009 | 10 | 229 | 3.2 | 6.4 | 0.00 | 0.00 | 0.00 | 85 | 1021.3 |
| 20260502041507 | 10 | 182 | 1.6 | 6.4 | 0.00 | 0.00 | 0.00 | 87 | 1021.2 |
| 20260502033058 | 10 | 269 | 0.0 | 4.8 | 0.00 | 0.00 | 0.00 | 88 | 1021.2 |
| 20260502031555 | 10 | 243 | 4.8 | 14.5 | 0.00 | 0.00 | 0.00 | 85 | 1021.3 |
| 20260502030151 | 10 | 277 | 6.4 | 17.7 | 0.00 | 0.00 | 0.00 | 86 | 1021.4 |
| 20260502023049 | 10 | 240 | 4.8 | 14.5 | 0.00 | 0.00 | 0.00 | 88 | 1021.5 |
| 20260502021542 | 10 | 256 | 4.8 | 17.7 | 0.00 | 0.00 | 0.00 | 86 | 1021.5 |
| 20260502020038 | 9 | 248 | 4.8 | 19.3 | 0.00 | 0.00 | 0.00 | 89 | 1021.5 |
| 20260502014536 | 6 | 271 | 1.6 | 6.4 | 0.00 | 0.00 | 0.00 | 95 | 1021.7 |
| 20260502013043 | 5 | 288 | 1.6 | 9.7 | 0.00 | 0.00 | 0.00 | 97 | 1021.6 |
| 20260502011534 | 5 | 236 | 0.0 | 4.8 | 0.00 | 0.00 | 0.00 | 96 | 1021.7 |
| 20260502010029 | 5 | 182 | 0.0 | 4.8 | 0.00 | 0.00 | 0.00 | 96 | 1021.8 |
| 20260502004546 | 5 | 178 | 0.0 | 3.2 | 0.00 | 0.00 | 0.00 | 96 | 1021.9 |
| 20260502003026 | 5 | 178 | 1.6 | 4.8 | 0.00 | 0.00 | 0.00 | 96 | 1021.9 |
| 20260502001526 | 5 | 179 | 1.6 | 3.2 | 0.00 | 0.00 | 0.00 | 96 | 1021.9 |
| 20260502000027 | 6 | 179 | 0.0 | 3.2 | 0.00 | 0.00 | 0.00 | 95 | 1022.1 |
| 20260501234527 | 6 | 179 | 1.6 | 3.2 | 0.00 | 0.00 | 0.00 | 95 | 1022.1 |
| 20260501233020 | 6 | 179 | 0.0 | 4.8 | 0.00 | 0.00 | 0.00 | 95 | 1022.1 |
| 20260501231524 | 6 | 179 | 1.6 | 3.2 | 0.00 | 0.00 | 0.00 | 94 | 1022.1 |
| 20260501230015 | 7 | 179 | 1.6 | 4.8 | 0.00 | 0.00 | 0.00 | 94 | 1022.0 |
| 20260501224514 | 7 | 180 | 1.6 | 4.8 | 0.00 | 0.00 | 0.00 | 95 | 1022.1 |
| 20260501223013 | 7 | 180 | 0.0 | 6.4 | 0.00 | 0.00 | 0.00 | 95 | 1022.3 |
| 20260501221511 | 7 | 180 | 1.6 | 4.8 | 0.00 | 0.00 | 0.00 | 95 | 1022.2 |
| 20260501220008 | 7 | 180 | 0.0 | 1.6 | 0.00 | 0.00 | 0.00 | 95 | 1022.2 |
| 20260501214507 | 7 | 180 | 1.6 | 4.8 | 0.00 | 0.00 | 0.00 | 94 | 1022.1 |
| 20260501213008 | 8 | 179 | 0.0 | 3.2 | 0.00 | 0.00 | 0.00 | 93 | 1022.3 |
| 20260501211507 | 8 | 180 | 0.0 | 1.6 | 0.00 | 0.00 | 0.00 | 92 | 1022.3 |
| 20260501210007 | 9 | 180 | 0.0 | 1.6 | 0.00 | 0.00 | 0.00 | 91 | 1022.2 |
| 20260501204507 | 10 | 190 | 3.2 | 6.4 | 0.00 | 0.00 | 0.00 | 90 | 1022.0 |
| 20260501203006 | 10 | 211 | 0.0 | 0.0 | 0.00 | 0.00 | 0.00 | 89 | 1022.2 |
| 20260501201505 | 11 | 211 | 0.0 | 1.6 | 0.00 | 0.00 | 0.00 | 87 | 1022.2 |
| 20260501200005 | 11 | 211 | 0.0 | 4.8 | 0.00 | 0.00 | 0.00 | 86 | 1022.3 |
| 20260501194510 | 12 | 212 | 3.2 | 6.4 | 0.00 | 0.00 | 0.00 | 83 | 1022.4 |
| 20260501193009 | 12 | 214 | 3.2 | 6.4 | 0.00 | 0.00 | 0.00 | 81 | 1022.4 |
| 20260501191503 | 13 | 240 | 1.6 | 4.8 | 0.00 | 0.00 | 0.00 | 81 | 1022.2 |
| 20260501190003 | 14 | 240 | 1.6 | 3.2 | 0.00 | 0.00 | 0.00 | 79 | 1022.3 |
| 20260501184502 | 15 | 242 | 1.6 | 4.8 | 0.00 | 0.00 | 0.00 | 76 | 1022.2 |
| 20260501183002 | 15 | 178 | 1.6 | 4.8 | 0.00 | 0.00 | 0.00 | 71 | 1022.1 |
| 20260501181603 | 15 | 189 | 0.0 | 6.4 | 0.00 | 0.00 | 0.00 | 71 | 1022.1 |
| 20260501180100 | 15 | 188 | 1.6 | 8.0 | 0.00 | 0.00 | 0.00 | 70 | 1022.2 |
| 20260501174653 | 15 | 202 | 3.2 | 9.7 | 0.00 | 0.00 | 0.00 | 72 | 1022.2 |
| 20260501173105 | 16 | 182 | 3.2 | 6.4 | 0.00 | 0.00 | 0.00 | 70 | 1022.2 |
| 20260501171556 | 16 | 181 | 1.6 | 9.7 | 0.00 | 0.00 | 0.00 | 71 | 1022.3 |
| 20260501164608 | 16 | 202 | 3.2 | 14.5 | 0.00 | 0.00 | 0.00 | 71 | 1022.5 |
| 20260501163104 | 16 | 213 | 6.4 | 16.1 | 0.00 | 0.00 | 0.00 | 70 | 1022.5 |
| 20260501161556 | 17 | 217 | 8.0 | 12.9 | 0.00 | 0.00 | 0.00 | 68 | 1022.6 |
| 20260501160056 | 18 | 210 | 6.4 | 9.7 | 0.00 | 0.00 | 0.00 | 67 | 1022.7 |
| 20260501154617 | 18 | 232 | 4.8 | 8.0 | 0.00 | 0.00 | 0.00 | 74 | 1022.7 |